Location: UBC Liquid-Mirror Observatory
(49.2876°N, 122.5728°W)
Time: 21:48:11
(UTC-07:00)

Amateur Radio Satellites - All Passes

Search period start: 21 October 2014 21:18
Search period end: 22 October 2014 21:18
Location: UBC Liquid-Mirror Observatory, 49.2876°N, 122.5728°W

Satellite Date Start Highest point End Downlink Frequencies (MHz)
Time Altitude Azimuth
SO-50 21 Oct 21:33:53 21:38:25 39° 40° (NE) 21:43:00 436.795 FM
UOSAT-12 21 Oct 21:35:54 21:38:41 15° 16° (NNE) 21:41:28 437.025 FM, 437.400 FM
FUNcube-1 21 Oct 21:37:39 21:41:35 29° 65° (ENE) 21:45:29 145.950 - 145.970 MHz USB
HO-68 21 Oct 21:45:09 21:52:07 54° 259° (W) 21:59:10 435.675 MHz FM
Oscar 11 21 Oct 21:47:59 21:52:18 72° 74° (ENE) 21:56:38 145.825 FM, Beacon 2401.500 USB
KITSAT 1 21 Oct 22:23:23 22:31:27 73° 238° (WSW) 22:39:28 435.175 FM
ZACube-1 21 Oct 22:27:31 22:32:07 81° 75° (ENE) 22:36:41 437.345 MHz
RS-15 21 Oct 22:35:37 22:45:25 40° 110° (ESE) 22:55:11 29.354 - 29.394 USB, Beacon 29.352 USB
UKube-1 21 Oct 22:40:04 22:43:56 31° 264° (W) 22:47:51 145.840 MHz, 145.915 MHz
FUNcube-1 21 Oct 23:13:33 23:17:51 38° 263° (W) 23:22:07 145.950 - 145.970 MHz USB
SO-50 21 Oct 23:14:30 23:19:03 42° 239° (WSW) 23:23:38 436.795 FM
UOSAT-12 21 Oct 23:15:41 23:20:08 38° 39° (NE) 23:24:31 437.025 FM, 437.400 FM
Oscar 11 21 Oct 23:26:45 23:28:59 14° 272° (W) 23:31:15 145.825 FM, Beacon 2401.500 USB
ZACube-1 22 Oct 00:06:48 00:09:05 14° 273° (W) 00:11:21 437.345 MHz
KITSAT 1 22 Oct 00:20:32 00:25:29 18° 260° (W) 00:30:26 435.175 FM
RS-15 22 Oct 00:46:06 00:57:03 73° 315° (NW) 01:08:06 29.354 - 29.394 USB, Beacon 29.352 USB
UOSAT-12 22 Oct 00:55:53 01:00:22 43° 239° (WSW) 01:04:46 437.025 FM, 437.400 FM
MaSat-1 22 Oct 01:17:27 01:21:36 74° 119° (ESE) 01:25:20 437.345 MHz
Oscar 10/S400 22 Oct 01:19:22 02:11:39 19° 236° (WSW) 04:21:41 145.825 - 145.975 CW/USB, Beacon 145.810 USB
Oscar 19 22 Oct 01:31:07 01:34:03 15° 87° (E) 01:36:58 437.125 CW, 437.150 USB
JAS-1B 22 Oct 01:38:08 01:42:46 20° 91° (E) 01:47:53 435.800 - 435.900 CW/SSB
Oscar 16 22 Oct 02:15:06 02:19:50 36° 96° (E) 02:24:31 437.025 USB, Beacon 2401.1428
Uribyol 2 22 Oct 02:29:25 02:33:30 23° 92° (E) 02:37:32 436.500 FM
ITAMSAT 1 22 Oct 02:34:34 02:38:45 24° 92° (E) 02:42:53 435.822 SSB
AO-Echo 22 Oct 02:35:17 02:39:59 31° 94° (E) 02:44:41 ?
Gurwin Techsat 1B 22 Oct 02:37:00 02:39:47 14° 86° (E) 02:42:33 435.225 FM
TMSAT-1 22 Oct 02:50:21 02:53:03 14° 86° (E) 02:55:45 436.925 FM
MaSat-1 22 Oct 02:55:07 02:57:41 16° 316° (NW) 03:00:04 437.345 MHz
RS-15 22 Oct 03:01:29 03:11:30 39° 346° (NNW) 03:21:42 29.354 - 29.394 USB, Beacon 29.352 USB
Oscar 19 22 Oct 03:08:55 03:14:04 84° 286° (WNW) 03:19:11 437.125 CW, 437.150 USB
AO-27 22 Oct 03:18:47 03:23:57 55° 101° (E) 03:29:04 436.795 MHz FM
OPAL 22 Oct 03:22:27 03:24:51 14° 49° (NE) 03:27:15 ?
JAS-1B 22 Oct 03:27:43 03:34:01 84° 287° (WNW) 03:41:29 435.800 - 435.900 CW/SSB
AO-7 22 Oct 03:30:23 03:32:08 11° 80° (E) 03:33:53 29.400 - 29.500 MHz
Oscar 16 22 Oct 03:54:31 03:59:11 36° 295° (WNW) 04:03:50 437.025 USB, Beacon 2401.1428
Sapphire 22 Oct 03:57:30 04:00:27 15° 104° (ESE) 04:03:24 437.095 MHz 1200 baud AX-25 AFSK
Uribyol 2 22 Oct 04:08:13 04:13:22 59° 290° (WNW) 04:18:28 436.500 FM
ITAMSAT 1 22 Oct 04:13:28 04:18:36 57° 291° (WNW) 04:23:41 435.822 SSB
AO-Echo 22 Oct 04:13:53 04:18:52 44° 293° (WNW) 04:23:53 ?
Gurwin Techsat 1B 22 Oct 04:15:10 04:20:32 88° 105° (ESE) 04:25:52 435.225 FM
PCSat 22 Oct 04:18:47 04:23:02 24° 109° (ESE) 04:27:19 145.825 MHz
Uosat F 22 Oct 04:19:08 04:21:28 13° 87° (E) 04:23:47 435.120 FM
TMSAT-1 22 Oct 04:28:25 04:33:47 87° 105° (ESE) 04:39:05 436.925 FM
Oscar 19 22 Oct 04:49:46 04:52:40 15° 306° (NW) 04:55:34 437.125 CW, 437.150 USB
JAS-2 22 Oct 04:56:51 05:01:05 15° 81° (E) 05:05:22 435.800 - 435.900 CW/SSB, 435.910 FM
OPAL 22 Oct 04:57:46 05:02:52 68° 69° (ENE) 05:07:57 ?
AO-27 22 Oct 04:58:52 05:03:09 26° 300° (WNW) 05:07:26 436.795 MHz FM
STRAND 1 22 Oct 05:02:50 05:04:21 11° 50° (NE) 05:05:52 ?
RS-15 22 Oct 05:17:03 05:27:17 41° 19° (NNE) 05:37:48 29.354 - 29.394 USB, Beacon 29.352 USB
AO-7 22 Oct 05:18:50 05:26:57 54° 102° (ESE) 05:35:03 29.400 - 29.500 MHz
JAS-1B 22 Oct 05:19:49 05:24:02 19° 306° (NW) 05:28:40 435.800 - 435.900 CW/SSB
Sapphire 22 Oct 05:37:37 05:43:02 83° 123° (ESE) 05:48:30 437.095 MHz 1200 baud AX-25 AFSK
Uribyol 2 22 Oct 05:50:06 05:51:48 12° 310° (NW) 05:53:30 436.500 FM
Hamsat 22 Oct 05:52:16 05:54:25 14° 88° (E) 05:56:34 145.90 MHz
ITAMSAT 1 22 Oct 05:55:32 05:57:01 11° 311° (NW) 05:58:30 435.822 SSB
Uosat F 22 Oct 05:55:55 06:01:01 87° 105° (ESE) 06:06:04 435.120 FM
Gurwin Techsat 1B 22 Oct 05:56:23 05:59:50 18° 305° (NW) 06:03:16 435.225 FM
PCSat 22 Oct 06:00:37 06:06:00 66° 309° (NW) 06:11:27 145.825 MHz
TMSAT-1 22 Oct 06:09:34 06:13:02 18° 305° (NW) 06:16:30 436.925 FM
STRAND 1 22 Oct 06:37:29 06:42:30 58° 70° (ENE) 06:47:35 ?
OPAL 22 Oct 06:38:33 06:42:13 20° 267° (W) 06:45:54 ?
JAS-2 22 Oct 06:39:48 06:47:24 66° 101° (E) 06:55:14 435.800 - 435.900 CW/SSB, 435.910 FM
AO-7 22 Oct 07:11:55 07:19:39 45° 303° (WNW) 07:27:24 29.400 - 29.500 MHz
Sapphire 22 Oct 07:22:38 07:27:07 26° 325° (NW) 07:31:38 437.095 MHz 1200 baud AX-25 AFSK
Hamsat 22 Oct 07:26:41 07:30:51 69° 286° (WNW) 07:35:01 145.90 MHz
RS-15 22 Oct 07:30:16 07:41:25 82° 49° (NE) 07:53:01 29.354 - 29.394 USB, Beacon 29.352 USB
SO-67 22 Oct 07:33:09 07:35:44 19° 93° (E) 07:38:18 435.3500 MHz FM
Uosat F 22 Oct 07:35:58 07:39:09 17° 305° (NW) 07:42:20 435.120 FM
PCSat 22 Oct 07:46:31 07:50:28 20° 332° (NNW) 07:54:26 145.825 MHz
STRAND 1 22 Oct 08:18:06 08:22:05 22° 268° (W) 08:26:05 ?
JAS-2 22 Oct 08:25:21 08:32:01 36° 300° (WNW) 08:38:56 435.800 - 435.900 CW/SSB, 435.910 FM
Saudisat 1A 22 Oct 08:31:56 08:35:45 30° 118° (ESE) 08:39:36 436.775 MHz
SO-67 22 Oct 09:05:42 09:08:49 32° 291° (WNW) 09:11:54 435.3500 MHz FM
AO-7 22 Oct 09:06:11 09:10:25 15° 327° (NNW) 09:14:40 29.400 - 29.500 MHz
HO-68 22 Oct 09:08:31 09:14:17 25° 91° (E) 09:20:01 435.675 MHz FM
Sapphire 22 Oct 09:10:16 09:12:33 13° 351° (N) 09:14:50 437.095 MHz 1200 baud AX-25 AFSK
MaSat-1 22 Oct 09:24:55 09:27:32 32° 52° (NE) 09:29:55 437.345 MHz
PCSat 22 Oct 09:34:10 09:36:07 12° 358° (N) 09:38:05 145.825 MHz
RS-15 22 Oct 09:43:15 09:52:48 35° 253° (WSW) 10:02:43 29.354 - 29.394 USB, Beacon 29.352 USB
Saudisat 1A 22 Oct 10:10:57 10:15:11 45° 317° (NW) 10:19:27 436.775 MHz
JAS-2 22 Oct 10:14:06 10:15:02 10° 322° (NW) 10:15:57 435.800 - 435.900 CW/SSB, 435.910 FM
ZACube-1 22 Oct 10:14:56 10:16:23 11° 86° (E) 10:17:49 437.345 MHz
UKube-1 22 Oct 10:23:37 10:27:34 32° 96° (E) 10:31:29 145.840 MHz, 145.915 MHz
Sapphire 22 Oct 10:55:28 10:58:25 15° 18° (NNE) 11:01:23 437.095 MHz 1200 baud AX-25 AFSK
HO-68 22 Oct 10:55:30 11:02:43 77° 291° (WNW) 11:09:53 435.675 MHz FM
FUNcube-1 22 Oct 10:58:32 11:02:22 30° 95° (E) 11:06:06 145.950 - 145.970 MHz USB
MaSat-1 22 Oct 11:01:46 11:02:51 12° 254° (WSW) 11:03:54 437.345 MHz
Oscar 11 22 Oct 11:07:27 11:11:47 83° 104° (ESE) 11:16:06 145.825 FM, Beacon 2401.500 USB
PCSat 22 Oct 11:18:18 11:21:53 18° 24° (NNE) 11:25:28 145.825 MHz
ZACube-1 22 Oct 11:49:06 11:53:27 84° 285° (WNW) 11:57:40 437.345 MHz
Saudisat 1A 22 Oct 11:53:13 11:55:50 15° 340° (NNW) 11:58:27 436.775 MHz
Oscar 10/S400 22 Oct 11:59:08 12:01:11 10° 146° (SE) 12:03:10 145.825 - 145.975 CW/USB, Beacon 145.810 USB
UKube-1 22 Oct 11:59:51 12:03:44 31° 295° (WNW) 12:07:35 145.840 MHz, 145.915 MHz
Oscar 16 22 Oct 11:59:55 12:02:42 15° 53° (NE) 12:05:29 437.025 USB, Beacon 2401.1428
Uribyol 2 22 Oct 12:17:19 12:17:48 10° 48° (NE) 12:18:16 436.500 FM
AO-Echo 22 Oct 12:18:15 12:19:24 11° 50° (NE) 12:20:34 ?
ITAMSAT 1 22 Oct 12:22:04 12:23:06 11° 48° (NE) 12:24:07 435.822 SSB
JAS-1B 22 Oct 12:29:53 12:34:19 23° 57° (ENE) 12:38:41 435.800 - 435.900 CW/SSB
FUNcube-1 22 Oct 12:34:56 12:38:45 31° 294° (WNW) 12:42:29 145.950 - 145.970 MHz USB
Sapphire 22 Oct 12:38:26 12:43:29 37° 42° (NE) 12:48:29 437.095 MHz 1200 baud AX-25 AFSK
HO-68 22 Oct 12:44:20 12:49:22 21° 313° (NW) 12:54:23 435.675 MHz FM
Oscar 11 22 Oct 12:45:10 12:47:22 14° 303° (WNW) 12:49:35 145.825 FM, Beacon 2401.500 USB
AO-7 22 Oct 12:47:03 12:48:29 11° 23° (NNE) 12:49:54 29.400 - 29.500 MHz
Oscar 19 22 Oct 12:51:29 12:56:06 34° 64° (ENE) 13:00:42 437.125 CW, 437.150 USB
KITSAT 1 22 Oct 12:55:58 13:03:31 46° 114° (ESE) 13:11:05 435.175 FM
PCSat 22 Oct 13:01:15 13:06:35 52° 48° (NE) 13:11:52 145.825 MHz
AO-27 22 Oct 13:03:28 13:07:23 22° 58° (ENE) 13:11:20 436.795 MHz FM
ZACube-1 22 Oct 13:27:29 13:29:07 12° 305° (NW) 13:30:44 437.345 MHz
SO-50 22 Oct 13:33:50 13:37:26 24° 115° (ESE) 13:41:07 436.795 FM
Saudisat 1A 22 Oct 13:35:48 13:37:14 11° 5° (N) 13:38:41 436.775 MHz
Oscar 16 22 Oct 13:36:06 13:41:16 79° 73° (ENE) 13:46:26 437.025 USB, Beacon 2401.1428
Uribyol 2 22 Oct 13:51:05 13:56:08 51° 68° (ENE) 14:01:12 436.500 FM
AO-Echo 22 Oct 13:52:18 13:57:06 58° 70° (ENE) 14:02:05 ?
ITAMSAT 1 22 Oct 13:56:25 14:01:29 53° 68° (ENE) 14:06:34 435.822 SSB
Gurwin Techsat 1B 22 Oct 14:01:30 14:06:14 34° 64° (ENE) 14:10:59 435.225 FM
TMSAT-1 22 Oct 14:14:28 14:19:10 33° 63° (ENE) 14:23:53 436.925 FM
JAS-1B 22 Oct 14:18:43 14:24:38 65° 257° (WSW) 14:30:17 435.800 - 435.900 CW/SSB
Sapphire 22 Oct 14:21:51 14:27:06 50° 243° (WSW) 14:32:18 437.095 MHz 1200 baud AX-25 AFSK
Oscar 19 22 Oct 14:30:35 14:35:23 39° 263° (W) 14:40:13 437.125 CW, 437.150 USB
AO-7 22 Oct 14:31:48 14:38:35 30° 48° (NE) 14:45:22 29.400 - 29.500 MHz
AO-27 22 Oct 14:41:15 14:46:26 68° 257° (WSW) 14:51:41 436.795 MHz FM
PCSat 22 Oct 14:45:02 14:49:48 32° 248° (WSW) 14:54:31 145.825 MHz
KITSAT 1 22 Oct 14:50:52 14:58:48 57° 316° (NW) 15:06:47 435.175 FM
ISS 22 Oct 14:56:09 14:59:20 43° 150° (SSE) 15:02:32 145.800 FM
UOSAT-12 22 Oct 15:11:30 15:15:04 22° 114° (ESE) 15:18:41 437.025 FM, 437.400 FM
SO-50 22 Oct 15:13:09 15:17:38 58° 315° (NW) 15:22:17 436.795 FM
Saudisat 1A 22 Oct 15:15:02 15:18:27 21° 29° (NNE) 15:21:51 436.775 MHz
JAS-2 22 Oct 15:17:28 15:19:14 11° 39° (NE) 15:21:02 435.800 - 435.900 CW/SSB, 435.910 FM
Oscar 16 22 Oct 15:18:02 15:21:14 16° 272° (W) 15:24:27 437.025 USB, Beacon 2401.1428
Uribyol 2 22 Oct 15:31:32 15:35:53 26° 267° (W) 15:40:15 436.500 FM
AO-Echo 22 Oct 15:32:35 15:36:17 21° 270° (W) 15:40:06 ?
Uosat F 22 Oct 15:35:37 15:39:55 30° 62° (ENE) 15:44:15 435.120 FM
ITAMSAT 1 22 Oct 15:37:02 15:41:17 25° 267° (W) 15:45:34 435.822 SSB
Gurwin Techsat 1B 22 Oct 15:41:08 15:46:07 41° 263° (W) 15:51:09 435.225 FM
TMSAT-1 22 Oct 15:53:59 15:59:00 42° 262° (W) 16:04:03 436.925 FM
AO-7 22 Oct 16:22:15 16:30:33 86° 250° (WSW) 16:38:54 29.400 - 29.500 MHz
AO-27 22 Oct 16:26:46 16:26:58 10° 276° (W) 16:27:09 436.795 MHz FM
ISS 22 Oct 16:32:39 16:35:59 64° 349° (N) 16:39:19 145.800 FM
KITSAT 1 22 Oct 16:49:23 16:56:04 27° 343° (NNW) 17:02:45 435.175 FM
Hamsat 22 Oct 16:49:34 16:52:26 18° 61° (ENE) 16:55:17 145.90 MHz
UOSAT-12 22 Oct 16:50:10 16:54:49 65° 313° (NW) 16:59:33 437.025 FM, 437.400 FM
Saudisat 1A 22 Oct 16:54:12 16:58:39 85° 51° (NE) 17:03:05 436.775 MHz
SO-50 22 Oct 16:55:56 16:59:10 18° 338° (NNW) 17:02:28 436.795 FM
JAS-2 22 Oct 16:56:46 17:02:25 43° 63° (ENE) 17:08:47 435.800 - 435.900 CW/SSB, 435.910 FM
OPAL 22 Oct 17:06:04 17:07:30 11° 88° (E) 17:08:56 ?
Uosat F 22 Oct 17:13:45 17:18:32 45° 261° (W) 17:23:23 435.120 FM
ISS 22 Oct 18:09:36 18:12:55 61° 9° (N) 18:16:15 145.800 FM
SO-67 22 Oct 18:10:39 18:12:31 14° 62° (ENE) 18:14:24 435.3500 MHz FM
AO-7 22 Oct 18:18:35 18:24:32 21° 272° (W) 18:30:32 29.400 - 29.500 MHz
Hamsat 22 Oct 18:23:51 18:28:00 57° 260° (W) 18:32:09 145.90 MHz
UOSAT-12 22 Oct 18:32:25 18:35:51 20° 335° (NNW) 18:39:19 437.025 FM, 437.400 FM
Saudisat 1A 22 Oct 18:35:10 18:37:37 15° 249° (WSW) 18:40:04 436.775 MHz
SO-50 22 Oct 18:39:28 18:41:35 13° 2° (N) 18:43:43 436.795 FM
JAS-2 22 Oct 18:42:00 18:47:34 40° 266° (W) 18:53:51 435.800 - 435.900 CW/SSB, 435.910 FM
OPAL 22 Oct 18:42:14 18:47:15 77° 107° (ESE) 18:52:12 ?
STRAND 1 22 Oct 18:45:21 18:48:04 14° 87° (E) 18:50:46 ?
KITSAT 1 22 Oct 18:47:51 18:54:23 26° 13° (NNE) 19:00:55 435.175 FM
HO-68 22 Oct 19:41:47 19:47:54 32° 55° (NE) 19:54:02 435.675 MHz FM
SO-67 22 Oct 19:41:47 19:45:08 49° 261° (W) 19:48:31 435.3500 MHz FM
ISS 22 Oct 19:46:22 19:49:37 49° 209° (SSW) 19:52:51 145.800 FM
UOSAT-12 22 Oct 20:15:43 20:17:48 13° 0° (N) 20:19:54 437.025 FM, 437.400 FM
SO-50 22 Oct 20:20:14 20:23:54 21° 27° (NNE) 20:27:37 436.795 FM
OPAL 22 Oct 20:22:09 20:25:35 19° 306° (NW) 20:29:00 ?
STRAND 1 22 Oct 20:22:47 20:28:00 89° 286° (WNW) 20:33:09 ?
Oscar 11 22 Oct 20:32:30 20:35:00 15° 58° (ENE) 20:37:29 145.825 FM, Beacon 2401.500 USB
KITSAT 1 22 Oct 20:44:00 20:51:52 51° 41° (NE) 20:59:40 435.175 FM
